{"data":{"norad_id":58377,"epoch":"2026-09-20T04:30:45.396288Z","epoch_age_seconds":170631,"freshness":"FRESH","line1":"1 58377U 23178D   26263.18802542  .00001358  00000+0  51316-4 0  9996","line2":"2 58377  53.1595 173.1182 0000933  80.0960 280.0148 15.34395544159732","mean_motion":15.34395544,"eccentricity":9.33e-5,"inclination_deg":53.1595,"raan_deg":173.1182,"arg_perigee_deg":80.096,"mean_anomaly_deg":280.0148,"bstar":5.1316e-5,"rev_number":15973,"period_min":93.848030622279,"perigee_km":462.07823278012,"apogee_km":463.35473604031,"semimajor_km":6840.8534844102,"source":"CELESTRAK","updated_at":"2026-09-21T09:00:33.865237Z"}}